[[{"header":{"parameterUnit":"m.s-1","parameterCategory":1,"la1":30.2991,"la2":30.254,"lo1":-89.0895,"lo2":-89.0444,"dy":0.0017,"dx":0.0017,"nx":28,"ny":28,"refTime":"2025-03-14T21:00:00:Z","depth":0,"parameterNumber":2,"parameterNumberName":"U-component_of_WINDS"},"data":[0,0,0,0,0,0,0,0,0,0,0,0,0,0,0,0,0,0,0,0,0,0,0,0,0,0,0,0,0,0,0,0,0,0,0,0,0,0,0,0,0,0,0,0,0,0,0,0,0,0,0,0,0,0,0,0,0,0,2.9055,2.9054,0,2.8927,2.8926,2.8924,2.879,2.8788,2.8786,2.8784,2.8651,2.8649,2.8647,0,0,0,0,0,0,0,0,0,0,0,0,0,2.9182,2.918,2.9055,2.9054,2.9052,2.8928,2.8926,2.8924,2.879,2.8788,2.8785,2.8783,2.8651,2.8649,2.8647,0,0,0,0,0,0,0,0,0,0,0,0,0,2.9098,2.918,2.9056,2.897,2.8961,2.8928,2.8926,2.8923,2.879,2.8788,2.8785,2.8782,2.8652,2.865,2.8647,2.8686,0,0,2.8639,2.8637,0,0,0,0,0,0,0,0,2.9103,2.9093,2.8985,2.8976,2.8966,2.8872,2.8921,2.8844,2.8791,2.8855,2.8784,2.8781,2.8726,2.8717,2.87,2.868,2.8674,2.8638,2.8637,2.8636,2.8635,0,0,0,0,0,0,0,2.9109,2.9098,2.9005,2.8983,2.8972,2.8938,2.8923,2.8906,2.8808,2.885,2.8839,2.8826,2.8721,2.8703,2.8695,2.8672,2.8638,2.8636,2.8634,2.8633,2.8678,2.868,0,0,0,0,0,0,2.9128,2.9104,2.9009,2.9001,2.9029,2.8938,2.8921,2.8905,2.8808,2.8791,2.8829,2.882,2.8708,2.8699,2.869,2.8729,2.8636,2.8633,2.8632,2.8675,2.8678,2.8681,0,0,0,0,0,0,2.9131,2.9121,2.9014,2.9049,2.9033,2.8939,2.8922,2.8904,2.8885,2.8792,2.8774,2.8828,2.8706,2.8694,2.8688,2.8723,2.8632,2.8629,2.8672,2.8676,2.868,2.8808,0,0,0,0,0,0,2.9135,2.9122,2.9137,2.9051,2.9032,2.9015,2.8924,2.8903,2.8881,2.8869,2.8787,2.877,2.8703,2.8693,2.8686,2.8717,2.8627,2.8668,2.8674,2.8678,2.8801,2.8816,2.883,0,0,0,0,0,2.914,2.9178,2.9139,2.9128,2.9048,2.9017,2.9006,2.8928,2.8885,2.8898,2.8838,2.8773,2.872,2.8694,2.8684,2.8716,2.8665,2.8672,2.8678,2.8794,2.8813,2.883,0,0,0,0,0,0,2.927,2.9165,2.912,2.9132,2.9085,2.8995,2.9009,2.8952,2.8915,2.8905,2.8809,2.8792,2.8797,2.8755,2.8728,2.8748,2.8684,2.8688,2.8775,2.8793,2.8807,2.8817,2.8625,0,0,0,0,0,2.93,2.9285,2.9194,2.9212,2.9191,2.9105,2.9088,2.9032,2.8979,2.8959,2.8898,2.8849,2.8821,2.8804,2.8774,2.8794,2.8773,2.8811,2.8826,2.8838,2.8843,2.885,2.8865,2.8702,2.8702,2.8702,0,0,2.9362,2.9303,2.9299,2.9237,2.9194,2.9179,2.9089,2.9077,2.9065,2.8956,2.8947,2.8902,2.884,2.8847,2.8848,2.8813,2.8884,2.8846,2.8857,2.8855,2.8858,2.8873,2.8887,2.8706,2.8706,2.8705,0,0,2.9467,2.9421,2.9431,2.939,2.9327,2.9269,2.9272,2.9191,2.9156,2.9146,2.9064,2.9048,2.9002,2.8961,2.8934,2.9024,2.8962,2.9017,2.9093,2.9101,2.9113,2.9124,2.9155,2.9168,2.9022,2.9022,2.9023,0,2.9551,2.9527,2.9444,2.9437,2.9412,2.9314,2.9323,2.9287,2.9217,2.9201,2.9163,2.9103,2.9055,2.9051,2.9073,2.9055,2.9054,2.9025,2.9119,2.9129,2.9137,2.9166,2.9178,2.9029,2.9028,2.9028,2.9027,0,2.9633,2.9617,2.9633,2.9568,2.9545,2.9546,2.9463,2.9449,2.9395,2.9342,2.9332,2.927,2.9225,2.922,2.9167,2.9208,2.9189,2.9137,2.907,2.9161,2.9186,2.9197,2.9039,2.9037,2.9035,2.9033,0,0,2.9815,2.9705,2.9712,2.9681,2.9604,2.959,2.9587,2.9543,2.9533,2.9487,2.9481,2.9445,2.9396,2.9366,2.9307,2.9314,2.9388,2.926,2.9257,2.9285,2.9428,2.9468,2.9482,2.9347,2.9349,2.935,2.9433,0,2.9906,2.9895,2.982,2.983,2.9814,2.9721,2.9718,2.967,2.962,2.9598,2.9541,2.9517,2.9455,2.9436,2.9438,2.9379,2.9415,2.9372,2.9339,2.9339,2.9357,2.9495,2.9536,2.9618,2.9443,2.9444,2.9445,0,3.001,2.9972,2.9981,2.9903,2.9894,2.9892,2.9846,2.9827,2.977,2.9733,2.97,2.9634,2.9624,2.9563,2.9547,2.9519,2.9501,2.947,2.9471,2.9464,2.9397,2.9491,2.9642,2.9654,2.946,2.9459,2.9458,0,3.0141,3.0092,3.009,3.0067,2.9977,2.9978,2.994,2.9881,2.9859,2.9819,2.9804,2.9763,2.974,2.9709,2.9634,2.9596,2.9626,2.9559,2.9594,2.9596,2.9604,2.9604,2.9753,2.9595,2.9595,2.9594,2.9594,0,3.0249,3.0258,3.0148,3.0147,3.0154,3.0068,3.0077,3.003,2.9978,2.9966,2.9883,2.9873,2.9775,2.9753,2.9694,2.969,2.968,2.9649,2.9633,2.9656,2.966,2.9642,2.9634,2.9597,2.9597,2.9596,2.9596,0,3.0396,3.0323,3.0315,3.0231,3.021,3.0219,3.0146,3.0141,3.0086,3.0071,3.0063,2.9976,2.9946,2.9869,2.9819,2.9779,2.979,2.9761,2.981,2.9799,2.9839,2.9836,2.9981,2.9995,2.983,2.9831,2.9833,0,3.0469,3.0474,3.039,3.0377,3.0343,3.0322,3.03,3.0215,3.0195,3.0131,3.0134,3.0098,3.0065,3.0021,2.9953,2.9914,2.9883,2.9936,2.9876,2.9899,2.9882,2.9883,2.9882,2.9949,2.9952,2.9953,2.9955,0,3.0607,3.0571,3.0542,3.0502,3.0478,3.0442,3.0401,3.0394,3.0299,3.0281,3.025,3.0224,3.0174,3.0138,3.0089,3.0048,2.9986,2.9975,2.998,3.0003,3.0031,3.0015,2.9844,2.9971,2.997,2.9968,2.9968,2.9967,3.0718,3.0717,3.0659,3.063,3.0591,3.0554,3.0546,3.049,3.0463,3.0416,3.0368,3.0342,3.0284,3.0211,3.0175,3.0153,3.012,3.0129,3.0131,3.0134,3.0144,3.0036,3.0144,3.0143,3.0143,3.0142,3.0142,0,3.085,3.0808,3.0783,3.0728,3.0706,3.065,3.0602,3.0586,3.0565,3.0517,3.0486,3.045,3.0416,3.0346,3.0304,3.03,3.027,3.0292,3.0291,3.0282,3.0177,3.0175,3.0317,3.0317,3.0317,3.0317,3.0317,3.0317,3.0916,3.0912,3.087,3.0845,3.0802,3.0778,3.0755,3.072,3.0681,3.0646,3.0617,3.0572,3.0514,3.0468,3.0434,3.0414,3.0402,3.0433,3.0404,3.0306,3.029,3.0274,3.0272,3.0432,3.0432,3.0511,3.0512,3.0512]},{"header":{"parameterUnit":"m.s-1","parameterCategory":1,"la1":30.2991,"la2":30.254,"lo1":-89.0895,"lo2":-89.0444,"dy":0.0017,"dx":0.0017,"nx":28,"ny":28,"refTime":"2025-03-14T21:00:00:Z","depth":0,"parameterNumber":3,"parameterNumberName":"V-component_of_WINDS"},"data":[0,0,0,0,0,0,0,0,0,0,0,0,0,0,0,0,0,0,0,0,0,0,0,0,0,0,0,0,0,0,0,0,0,0,0,0,0,0,0,0,0,0,0,0,0,0,0,0,0,0,0,0,0,0,0,0,0,0,6.2284,6.2286,0,6.2521,6.2523,6.2526,6.2585,6.2584,6.2582,6.2581,6.2838,6.2846,6.2854,0,0,0,0,0,0,0,0,0,0,0,0,0,6.1897,6.1904,6.2283,6.2286,6.2289,6.252,6.2524,6.2527,6.2585,6.2584,6.2582,6.258,6.2835,6.2845,6.2855,0,0,0,0,0,0,0,0,0,0,0,0,0,6.2093,6.1906,6.2283,6.2346,6.2354,6.252,6.2524,6.2528,6.2586,6.2584,6.2581,6.2579,6.2832,6.2844,6.2856,6.298,0,0,6.2894,6.2899,0,0,0,0,0,0,0,0,6.2081,6.2107,6.2334,6.2342,6.2351,6.2521,6.2482,6.268,6.2586,6.2498,6.2581,6.2578,6.2735,6.2755,6.2805,6.2992,6.3003,6.2895,6.2903,6.2908,6.2912,0,0,0,0,0,0,0,6.2068,6.2097,6.2378,6.2337,6.2348,6.2368,6.2393,6.2519,6.2628,6.2506,6.2511,6.2537,6.2739,6.2793,6.2812,6.3007,6.2895,6.2906,6.2914,6.2918,6.3313,6.3316,0,0,0,0,0,0,6.2041,6.2085,6.237,6.2385,6.2207,6.2377,6.2405,6.2469,6.2626,6.2647,6.2539,6.2539,6.2773,6.2797,6.2821,6.2979,6.2908,6.292,6.2927,6.331,6.3313,6.3317,0,0,0,0,0,0,6.2033,6.2066,6.2361,6.2237,6.2275,6.2386,6.2457,6.2475,6.2528,6.2651,6.2672,6.2573,6.2772,6.2804,6.294,6.2989,6.2925,6.2937,6.3306,6.3311,6.3315,6.3295,0,0,0,0,0,0,6.2021,6.2063,6.2107,6.2237,6.2282,6.247,6.246,6.2481,6.2548,6.255,6.2688,6.2709,6.2773,6.2921,6.2952,6.3005,6.2946,6.3302,6.3308,6.3314,6.3291,6.3298,6.3303,0,0,0,0,0,6.2007,6.2094,6.2108,6.2143,6.2338,6.2473,6.2499,6.2567,6.2551,6.26,6.2679,6.2705,6.2978,6.2935,6.297,6.3027,6.33,6.3307,6.3313,6.3289,6.3297,6.3303,0,0,0,0,0,0,6.197,6.2112,6.213,6.226,6.2353,6.2482,6.2545,6.2572,6.2676,6.2674,6.2758,6.2789,6.2921,6.2988,6.2937,6.3158,6.314,6.3154,6.3109,6.3117,6.3123,6.3105,6.2957,0,0,0,0,0,6.1976,6.2069,6.219,6.2293,6.2339,6.2434,6.2495,6.2538,6.2641,6.2682,6.2772,6.2874,6.2984,6.3054,6.3162,6.3302,6.3336,6.3359,6.3365,6.3369,6.3381,6.3465,6.3478,6.3339,6.3339,6.3339,0,0,6.1992,6.208,6.2134,6.2288,6.2366,6.2465,6.2467,6.2571,6.2647,6.27,6.2833,6.2903,6.3024,6.3163,6.3229,6.3223,6.3427,6.3378,6.338,6.339,6.3473,6.3486,6.3498,6.3344,6.3343,6.3342,0,0,6.207,6.2144,6.224,6.2318,6.2434,6.2497,6.252,6.2646,6.2693,6.2828,6.287,6.2966,6.3151,6.3236,6.3304,6.3418,6.3448,6.3452,6.3483,6.3564,6.3575,6.3585,6.3629,6.3644,6.3463,6.3463,6.3463,0,6.2075,6.2221,6.2287,6.2389,6.2458,6.2506,6.2607,6.2681,6.2829,6.2878,6.2868,6.3104,6.3189,6.3351,6.3379,6.3431,6.3465,6.3436,6.3567,6.3578,6.3589,6.3632,6.3648,6.3463,6.3463,6.3463,6.3463,0,6.2224,6.2325,6.2389,6.2526,6.2602,6.2704,6.279,6.286,6.2899,6.2964,6.3104,6.3208,6.3338,6.338,6.342,6.355,6.3543,6.3549,6.3532,6.36,6.3643,6.366,6.3462,6.3462,6.3463,6.3463,0,0,6.2284,6.2457,6.2479,6.2544,6.2677,6.276,6.2866,6.299,6.305,6.3152,6.3247,6.3404,6.3411,6.3488,6.3539,6.3609,6.3698,6.3608,6.3612,6.3623,6.3853,6.3848,6.3866,6.3718,6.3721,6.3724,6.3844,0,6.238,6.2565,6.2629,6.2785,6.2882,6.2932,6.3026,6.3121,6.3187,6.3283,6.3358,6.3469,6.3469,6.3516,6.3588,6.3671,6.3746,6.3664,6.3812,6.3817,6.3781,6.3887,6.3882,6.3989,6.386,6.3863,6.3865,0,6.2517,6.2616,6.278,6.2904,6.2948,6.3029,6.315,6.324,6.3352,6.3396,6.3482,6.3528,6.3648,6.3623,6.3793,6.3735,6.3801,6.3852,6.3858,6.3876,6.3845,6.391,6.4025,6.4042,6.3891,6.3889,6.3887,0,6.2547,6.2722,6.2844,6.2897,6.3045,6.3102,6.3167,6.3276,6.3348,6.3456,6.3504,6.3626,6.3694,6.379,6.387,6.3844,6.4034,6.4015,6.4078,6.4076,6.4116,6.4113,6.4245,6.4155,6.4155,6.4154,6.4154,0,6.2648,6.2747,6.2859,6.2934,6.3049,6.3125,6.3238,6.3308,6.3405,6.3499,6.3551,6.364,6.3739,6.3842,6.3907,6.404,6.407,6.4112,6.4128,6.4108,6.4103,6.4153,6.4148,6.4159,6.4158,6.4157,6.4156,0,6.2701,6.2779,6.2916,6.3044,6.3079,6.3158,6.3271,6.3349,6.3417,6.3536,6.3569,6.3678,6.3803,6.3892,6.4054,6.4097,6.4241,6.4256,6.4201,6.421,6.4268,6.4262,6.4439,6.4468,6.4356,6.4357,6.4358,0,6.2761,6.2838,6.2974,6.3038,6.3102,6.3205,6.3278,6.3358,6.3433,6.3568,6.3631,6.3758,6.3864,6.4062,6.416,6.4285,6.4306,6.4359,6.4325,6.4304,6.431,6.4305,6.4315,6.4364,6.4365,6.4365,6.4366,0,6.286,6.2895,6.2995,6.311,6.3194,6.329,6.3387,6.3438,6.3537,6.362,6.3745,6.3827,6.3991,6.4119,6.4254,6.4329,6.4367,6.4376,6.4398,6.4378,6.4344,6.4366,6.4217,6.4372,6.4371,6.4371,6.437,6.437,6.292,6.2992,6.3099,6.321,6.3291,6.3381,6.3461,6.3539,6.3643,6.3779,6.3822,6.3954,6.407,6.4255,6.4331,6.444,6.4438,6.4468,6.4477,6.4483,6.4484,6.4325,6.4465,6.4465,6.4465,6.4465,6.4465,0,6.3024,6.3095,6.3196,6.3328,6.3418,6.344,6.355,6.3625,6.3738,6.384,6.3943,6.409,6.4215,6.4323,6.4455,6.4521,6.4542,6.4554,6.455,6.4568,6.4477,6.4446,6.4534,6.4534,6.4534,6.4534,6.4534,6.4534,6.3088,6.3211,6.326,6.3427,6.35,6.3625,6.3687,6.3772,6.3855,6.4015,6.4117,6.4185,6.4293,6.4433,6.4551,6.458,6.4628,6.4635,6.4669,6.4582,6.4574,6.4566,6.4537,6.4644,6.4644,6.4752,6.4753,6.4753]}]]